Location: Unspecified
(47.6578°N, 23.5640°E)
Time: 04:11:33
(UTC+02:00)

ISS - Pass Details

Date: 06 December 2017
Orbit: 402 x 407 km, 51.6° (Epoch: 10 December)

Event Time Altitude Azimuth Distance (km) Brightness Sun altitude
Rises 18:43:31 0° 283° (WNW) 2,330 1.2 -20.8°
Reaches altitude 10° 18:45:41 10° 291° (WNW) 1,469 -0.2 -21.2°
Enters shadow 18:48:05 34° 329° (NNW) 697 -2.5 -21.6°
